Starlink 30189

operational
NORAD ID: 57430 Int'l Des: 2023-105 Owner: SPXS Country: US Constellation: starlink
LEOCIRCULAR

Über Starlink 30189

Beschreibung wird geladen...

Live-Position

3D-Globus wird geladen...

Nächste Überflüge

Höhenverlauf

Altitude vs Time

uPlot chart will show altitude changes over time

Zweizeiliger Elementsatz

1 57430U 23105A 26035.25004630 .00100118 00000-0 26439-2 0 9993
2 57430 42.9998 71.0780 0001068 285.0588 111.4354 15.37396845 5652
Epoch: 4. Feb. 2026 • Age: 8 hours

Aktueller Status

Höhe 455.6 km
Geschwindigkeit 7.64 km/s
Subsatellitenpunkt -13.26°S, 76.67°E
Startdatum 24. Juli 2023
Alter 2.5 years
Typ internet

Technische Details

Klassifizierung Payload
Masse 730.00 kg
Trockenmasse 700.00 kg
Gesamtmasse 730.00 kg
Länge 0.30 m
Durchmesser 4.10 m
Spannweite 29.00 m
Form Box + pan
Hersteller SPXS
Bus-Typ Starlink V2M
Phasenstatus In Orbit
Besitzer/Staat SPXS/US

Große Konstellationen

Loading constellations...